[[{"header":{"parameterUnit":"m.s-1","parameterCategory":2,"la1":30.2991,"la2":30.254,"lo1":-89.0895,"lo2":-89.0444,"dy":0.0017,"dx":0.0017,"nx":28,"ny":28,"refTime":"2024-05-29T03:00:00:Z","depth":"0","parameterNumber":2,"parameterNumberName":"U-component_of_CURRENTS"},"data":[0,0,0,0,0,0,0,0,0,0,0,0,0,0,0,0,0,0,0,0,0,0,0,0,0,0,0,0,0,0,0,0,0,0,0,0,0,0,0,0,0,0,0,0,0,0,0,0,0,0,0,0,0,0,0,0,0,0,0.2606,0.2606,0,0.2654,0.2654,0.2655,0.2659,0.2659,0.2658,0.2658,0.2759,0.2762,0.2765,0,0,0,0,0,0,0,0,0,0,0,0,0,0.2555,0.2556,0.2606,0.2606,0.2607,0.2654,0.2654,0.2655,0.2659,0.2659,0.2658,0.2657,0.2758,0.2761,0.2765,0,0,0,0,0,0,0,0,0,0,0,0,0,0.2587,0.2556,0.2606,0.2615,0.2616,0.2653,0.2654,0.2655,0.2659,0.2659,0.2658,0.2657,0.2756,0.2761,0.2766,0.281,0,0,0.278,0.2782,0,0,0,0,0,0,0,0,0.2585,0.2589,0.2613,0.2614,0.2616,0.265,0.2673,0.2709,0.2659,0.2643,0.2658,0.2657,0.2728,0.2735,0.2745,0.2814,0.2819,0.278,0.2783,0.2785,0.2787,0,0,0,0,0,0,0,0.2583,0.2587,0.2625,0.2614,0.2615,0.2629,0.2633,0.268,0.269,0.2644,0.2645,0.265,0.2729,0.274,0.2747,0.282,0.278,0.2785,0.2787,0.2789,0.3011,0.3014,0,0,0,0,0,0,0.2576,0.2585,0.2623,0.2626,0.2599,0.2631,0.2634,0.2639,0.2688,0.2694,0.2651,0.265,0.2732,0.2742,0.2751,0.2859,0.2785,0.279,0.2792,0.3008,0.3012,0.3015,0,0,0,0,0,0,0.2575,0.2579,0.2621,0.2607,0.2613,0.2632,0.2638,0.2641,0.2653,0.2693,0.27,0.266,0.2732,0.2744,0.2811,0.286,0.2792,0.2796,0.3004,0.3009,0.3013,0.3041,0,0,0,0,0,0,0.2573,0.2579,0.2584,0.2606,0.2613,0.2648,0.2639,0.2642,0.2658,0.2657,0.2703,0.2711,0.2732,0.2804,0.2815,0.2866,0.28,0.3,0.3006,0.3012,0.3036,0.3046,0.3054,0,0,0,0,0,0.2571,0.2585,0.2584,0.2589,0.2619,0.2649,0.2655,0.2666,0.2659,0.2672,0.271,0.271,0.2849,0.2809,0.2823,0.2875,0.2998,0.3005,0.3011,0.3032,0.3044,0.3054,0,0,0,0,0,0,0.2568,0.2588,0.2586,0.2605,0.2626,0.265,0.2666,0.2669,0.2708,0.2713,0.274,0.2753,0.2835,0.2856,0.2811,0.2961,0.2928,0.2937,0.2939,0.295,0.2959,0.298,0.2804,0,0,0,0,0,0.2569,0.2583,0.2603,0.2619,0.2629,0.2647,0.2661,0.267,0.2703,0.2718,0.2748,0.2803,0.2876,0.2908,0.2965,0.3038,0.3069,0.3087,0.3096,0.3103,0.3134,0.321,0.3227,0.3037,0.3037,0.3037,0,0,0.2571,0.2585,0.2592,0.2619,0.2635,0.2666,0.2654,0.2681,0.272,0.2727,0.2789,0.2832,0.2903,0.299,0.303,0.3011,0.3174,0.3112,0.3117,0.3145,0.3219,0.3237,0.3253,0.3042,0.3041,0.304,0,0,0.2587,0.2596,0.2613,0.2634,0.2663,0.2683,0.269,0.2718,0.2745,0.2807,0.2839,0.2919,0.2992,0.3072,0.312,0.3219,0.3218,0.3226,0.3288,0.3361,0.3376,0.3391,0.3443,0.3462,0.323,0.323,0.323,0,0.2588,0.261,0.2624,0.2651,0.2675,0.2691,0.2722,0.2763,0.281,0.2859,0.2833,0.2999,0.3048,0.3196,0.3232,0.3243,0.3262,0.3231,0.337,0.3385,0.3399,0.3449,0.3469,0.3232,0.3232,0.3232,0.3231,0,0.2615,0.2637,0.2654,0.2693,0.2724,0.2754,0.2805,0.285,0.2877,0.2924,0.305,0.3117,0.3219,0.3251,0.3273,0.3414,0.3388,0.3365,0.3331,0.3419,0.3467,0.3487,0.3235,0.3234,0.3234,0.3233,0,0,0.2605,0.2659,0.2665,0.2688,0.2747,0.2775,0.2861,0.2949,0.3019,0.3079,0.3181,0.3317,0.3343,0.3403,0.3441,0.3512,0.3625,0.3477,0.348,0.3511,0.3764,0.3584,0.3589,0.3603,0.3607,0.361,0.3753,0,0.262,0.2667,0.27,0.2758,0.2785,0.2844,0.2922,0.3012,0.3088,0.3191,0.33,0.3404,0.3404,0.3451,0.353,0.3603,0.3682,0.3588,0.3693,0.3698,0.3511,0.3608,0.3432,0.353,0.3773,0.3776,0.3778,0,0.2632,0.2663,0.2711,0.279,0.281,0.2852,0.298,0.3056,0.3221,0.3286,0.3413,0.3479,0.3636,0.3593,0.3777,0.3703,0.3754,0.3795,0.38,0.3642,0.3556,0.3488,0.3558,0.349,0.381,0.3807,0.3805,0,0.2604,0.2674,0.2709,0.2733,0.2826,0.2874,0.2936,0.3084,0.3169,0.3349,0.3423,0.3592,0.3674,0.3775,0.3855,0.3823,0.4017,0.3982,0.3882,0.3869,0.375,0.3718,0.3753,0.4128,0.4127,0.4127,0.4127,0,0.26,0.263,0.2693,0.271,0.277,0.285,0.2943,0.3044,0.32,0.3311,0.3459,0.3561,0.3718,0.3832,0.3898,0.3939,0.4056,0.3924,0.3905,0.3751,0.3719,0.3675,0.3636,0.4132,0.4131,0.413,0.4129,0,0.2559,0.26,0.2641,0.2725,0.275,0.2792,0.291,0.299,0.3144,0.3292,0.3351,0.3564,0.3701,0.3831,0.3999,0.3968,0.3918,0.4031,0.382,0.377,0.3541,0.3509,0.34,0.3304,0.3944,0.3941,0.3938,0,0.2539,0.2554,0.2622,0.264,0.267,0.2738,0.2789,0.2941,0.3025,0.3278,0.3342,0.3534,0.3643,0.3802,0.3801,0.3873,0.3825,0.3727,0.3637,0.3524,0.348,0.3352,0.3273,0.3514,0.3508,0.3503,0.3499,0,0.2503,0.2524,0.2553,0.2582,0.2619,0.2668,0.275,0.281,0.3003,0.3121,0.3294,0.3405,0.3543,0.3517,0.3564,0.3586,0.3502,0.3617,0.359,0.3218,0.3001,0.2898,0.3421,0.3454,0.3458,0.3462,0.3464,0.3466,0.2467,0.2468,0.2498,0.2517,0.2554,0.259,0.2599,0.27,0.2801,0.2948,0.313,0.322,0.3276,0.3299,0.3287,0.3144,0.3168,0.3066,0.3067,0.2972,0.277,0.3157,0.3088,0.309,0.3092,0.3094,0.3096,0,0.2408,0.2413,0.2433,0.2441,0.2434,0.249,0.2559,0.2551,0.2599,0.2756,0.2859,0.2911,0.2856,0.2901,0.2787,0.2648,0.2551,0.259,0.2442,0.2417,0.2865,0.2734,0.2473,0.2473,0.2473,0.2473,0.2474,0.2474,0.2379,0.2358,0.2358,0.2309,0.2314,0.2275,0.2289,0.2299,0.237,0.2404,0.2431,0.2503,0.2611,0.2546,0.2408,0.2348,0.2213,0.2033,0.2091,0.2481,0.2528,0.2573,0.2445,0.2127,0.2127,0.1542,0.1537,0.1534]},{"header":{"parameterUnit":"m.s-1","parameterCategory":2,"la1":30.2991,"la2":30.254,"lo1":-89.0895,"lo2":-89.0444,"dy":0.0017,"dx":0.0017,"nx":28,"ny":28,"refTime":"2024-05-29T03:00:00:Z","depth":"0","parameterNumber":3,"parameterNumberName":"V-component_of_CURRENTS"},"data":[0,0,0,0,0,0,0,0,0,0,0,0,0,0,0,0,0,0,0,0,0,0,0,0,0,0,0,0,0,0,0,0,0,0,0,0,0,0,0,0,0,0,0,0,0,0,0,0,0,0,0,0,0,0,0,0,0,0,-0.0037,-0.0037,0,-0.0099,-0.01,-0.0101,-0.0139,-0.0139,-0.0139,-0.0139,-0.0286,-0.029,-0.0293,0,0,0,0,0,0,0,0,0,0,0,0,0,-0.0007,-0.0007,-0.0037,-0.0037,-0.0038,-0.0099,-0.01,-0.0101,-0.0139,-0.0139,-0.0139,-0.0139,-0.0284,-0.0289,-0.0294,0,0,0,0,0,0,0,0,0,0,0,0,0,-0.0042,-0.0007,-0.0037,-0.0063,-0.0066,-0.0099,-0.01,-0.0101,-0.0139,-0.0139,-0.0139,-0.0139,-0.0283,-0.0289,-0.0294,-0.033,0,0,-0.0312,-0.0315,0,0,0,0,0,0,0,0,-0.004,-0.0043,-0.0058,-0.0061,-0.0064,-0.011,-0.0143,-0.0181,-0.0139,-0.0113,-0.0139,-0.0139,-0.0233,-0.0243,-0.0257,-0.0337,-0.0343,-0.0313,-0.0316,-0.0319,-0.032,0,0,0,0,0,0,0,-0.0037,-0.0041,-0.0063,-0.0059,-0.0062,-0.0091,-0.0095,-0.0151,-0.0176,-0.0116,-0.0118,-0.0122,-0.0236,-0.0251,-0.0261,-0.0345,-0.0313,-0.0318,-0.0321,-0.0324,-0.0499,-0.05,0,0,0,0,0,0,-0.0022,-0.0038,-0.0061,-0.0065,-0.0049,-0.0091,-0.0096,-0.0097,-0.0173,-0.0184,-0.0122,-0.0123,-0.0241,-0.0254,-0.0266,-0.0312,-0.0319,-0.0324,-0.0327,-0.0498,-0.0499,-0.0501,0,0,0,0,0,0,-0.0021,-0.0024,-0.0059,-0.0052,-0.0058,-0.0091,-0.0091,-0.0098,-0.0108,-0.0177,-0.0189,-0.0124,-0.0241,-0.0258,-0.0314,-0.0318,-0.0327,-0.0332,-0.0497,-0.0498,-0.05,-0.0405,0,0,0,0,0,0,-0.002,-0.0023,-0.002,-0.005,-0.0058,-0.0068,-0.0091,-0.0099,-0.011,-0.0112,-0.0183,-0.0197,-0.0243,-0.0304,-0.0319,-0.0326,-0.0337,-0.0495,-0.0497,-0.05,-0.0407,-0.0404,-0.0401,0,0,0,0,0,-0.0019,-0.001,-0.0019,-0.0022,-0.0052,-0.0067,-0.0074,-0.0099,-0.0109,-0.0109,-0.0162,-0.0194,-0.033,-0.031,-0.0327,-0.0336,-0.0494,-0.0497,-0.0499,-0.0408,-0.0404,-0.0401,0,0,0,0,0,0,0.0003,-0.0014,-0.0025,-0.0022,-0.0039,-0.0073,-0.0076,-0.0093,-0.0133,-0.0139,-0.0203,-0.0221,-0.0271,-0.0324,-0.03,-0.0398,-0.042,-0.0426,-0.0345,-0.0342,-0.0339,-0.03,-0.0341,0,0,0,0,0,0.0011,0.0014,-0.001,-0.0007,-0.0013,-0.0043,-0.0053,-0.0069,-0.0107,-0.0123,-0.017,-0.0236,-0.0298,-0.0333,-0.039,-0.0441,-0.0445,-0.0464,-0.0461,-0.0458,-0.0441,-0.0449,-0.0443,-0.0509,-0.0509,-0.0509,0,0,0.002,0.0011,0.0012,-0.0002,-0.0018,-0.0019,-0.0049,-0.0058,-0.0065,-0.0136,-0.0163,-0.0221,-0.0308,-0.036,-0.039,-0.0404,-0.044,-0.0461,-0.0457,-0.0442,-0.0451,-0.0444,-0.0437,-0.0511,-0.0511,-0.0511,0,0,0.0044,0.0033,0.0045,0.0036,0.002,0.0002,0.0004,-0.0025,-0.0046,-0.008,-0.0137,-0.019,-0.028,-0.0338,-0.0383,-0.0402,-0.0417,-0.0433,-0.0389,-0.0396,-0.0389,-0.0383,-0.0357,-0.035,-0.0437,-0.0437,-0.0437,0,0.0056,0.0069,0.0046,0.0055,0.0055,0.0017,0.0032,0.0001,-0.0042,-0.0058,-0.0078,-0.0193,-0.0267,-0.0332,-0.0345,-0.0391,-0.0382,-0.0387,-0.0386,-0.038,-0.0376,-0.0351,-0.0344,-0.0433,-0.0433,-0.0434,-0.0434,0,0.0089,0.01,0.0107,0.0109,0.0103,0.011,0.0074,0.006,0.0033,0.0003,-0.0049,-0.0139,-0.0203,-0.0248,-0.0306,-0.0327,-0.0325,-0.0368,-0.0378,-0.0362,-0.0339,-0.0332,-0.0427,-0.0428,-0.0429,-0.043,0,0,0.0122,0.013,0.0135,0.0151,0.0136,0.014,0.0124,0.0105,0.0107,0.0049,0.0052,-0.0072,-0.0105,-0.0159,-0.0236,-0.0258,-0.0226,-0.0294,-0.0296,-0.0235,-0.0204,-0.0194,-0.0187,-0.0257,-0.0256,-0.0255,-0.019,0,0.0159,0.0197,0.0187,0.0223,0.0241,0.021,0.0206,0.018,0.0147,0.0138,0.0047,0.0015,-0.0079,-0.0099,-0.0137,-0.0206,-0.021,-0.0238,-0.0257,-0.0257,-0.0224,-0.018,-0.0155,-0.0094,-0.0184,-0.0183,-0.0183,0,0.0202,0.0223,0.0268,0.0292,0.0298,0.0313,0.0317,0.0308,0.0269,0.0245,0.0199,0.0139,0.008,0.0012,-0.0065,-0.0072,-0.0124,-0.0171,-0.0171,-0.0188,-0.0236,-0.0135,-0.008,-0.0162,-0.0174,-0.0175,-0.0175,0,0.0251,0.0284,0.0327,0.0334,0.0349,0.0366,0.0373,0.0347,0.0356,0.0327,0.0346,0.0257,0.0237,0.0155,0.0039,-0.0001,-0.0011,-0.0085,-0.0116,-0.0115,-0.0112,-0.0112,-0.0113,-0.0111,-0.0111,-0.0111,-0.0111,0,0.0299,0.0335,0.0359,0.0384,0.0442,0.043,0.0482,0.0467,0.0473,0.0516,0.0415,0.0444,0.0274,0.0233,0.0116,0.0039,0.0049,-0.0079,-0.0095,-0.0079,-0.0077,-0.0167,-0.0253,-0.0109,-0.0109,-0.011,-0.011,0,0.0346,0.0359,0.0414,0.045,0.047,0.0513,0.0568,0.0602,0.0598,0.066,0.0666,0.0602,0.0555,0.0403,0.0285,0.0155,0.0021,0.0036,0.0084,0.0071,-0.0062,-0.0144,-0.0173,-0.0217,0.0016,0.0017,0.0017,0,0.0371,0.0406,0.0471,0.0513,0.0537,0.06,0.0648,0.0664,0.0715,0.0772,0.0821,0.0791,0.0794,0.0631,0.0408,0.0244,0.0097,0.0133,0.0034,-0.0034,-0.0139,-0.0197,-0.0238,0.0087,0.0088,0.0089,0.009,0,0.0421,0.0446,0.0492,0.0583,0.0648,0.0725,0.0804,0.0867,0.0911,0.0989,0.1091,0.1109,0.0948,0.0796,0.0539,0.0388,0.007,0.0145,0.0056,-0.0087,-0.0132,-0.0193,0.0028,0.0098,0.0097,0.0096,0.0096,0.0095,0.0461,0.0503,0.057,0.0657,0.0737,0.0846,0.0927,0.1033,0.1163,0.1295,0.1305,0.1384,0.1126,0.0785,0.057,0.0194,0.0144,0.006,-0.0028,-0.0074,-0.0139,0.0119,0.0169,0.0168,0.0168,0.0168,0.0168,0,0.0507,0.0558,0.064,0.0747,0.0843,0.0879,0.1027,0.1129,0.1315,0.1457,0.1567,0.1532,0.1218,0.0853,0.0339,0.0073,-0.0051,-0.0079,-0.0163,-0.0197,0.0034,0.0014,0.0056,0.0056,0.0056,0.0056,0.0056,0.0057,0.0534,0.0616,0.0659,0.0821,0.0901,0.1044,0.1138,0.1308,0.1451,0.1666,0.1758,0.1787,0.1549,0.0647,0.0057,-0.0109,-0.0305,-0.0337,-0.0438,-0.0296,-0.029,-0.0284,-0.0319,-0.0348,-0.0349,-0.0615,-0.0618,-0.062]}],[{"header":{"parameterUnit":"m.s-1","parameterCategory":2,"la1":30.2991,"la2":30.254,"lo1":-89.0895,"lo2":-89.0444,"dy":0.0017,"dx":0.0017,"nx":28,"ny":28,"refTime":"2024-05-29T03:00:00:Z","depth":"2","parameterNumber":2,"parameterNumberName":"U-component_of_CURRENTS"},"data":[0,0,0,0,0,0,0,0,0,0,0,0,0,0,0,0,0,0,0,0,0,0,0,0,0,0,0,0,0,0,0,0,0,0,0,0,0,0,0,0,0,0,0,0,0,0,0,0,0,0,0,0,0,0,0,0,0,0,0.2234,0.2235,0,0.225,0.225,0.225,0.2248,0.2248,0.2248,0.2247,0.2282,0.2283,0.2284,0,0,0,0,0,0,0,0,0,0,0,0,0,0.2214,0.2215,0.2234,0.2235,0.2235,0.225,0.225,0.225,0.2248,0.2248,0.2248,0.2247,0.2281,0.2283,0.2284,0,0,0,0,0,0,0,0,0,0,0,0,0,0.2224,0.2215,0.2234,0.2237,0.2237,0.225,0.225,0.225,0.2248,0.2248,0.2247,0.2247,0.2281,0.2283,0.2284,0.2297,0,0,0.2289,0.2289,0,0,0,0,0,0,0,0,0.2224,0.2225,0.2236,0.2237,0.2237,0.2248,0.2255,0.2267,0.2248,0.2242,0.2247,0.2247,0.2273,0.2276,0.2276,0.2299,0.23,0.2289,0.229,0.2291,0.2291,0,0,0,0,0,0,0,0.2223,0.2224,0.2239,0.2237,0.2237,0.2241,0.2242,0.2257,0.2258,0.2243,0.2243,0.2247,0.2274,0.2275,0.2277,0.2301,0.2289,0.229,0.2291,0.2292,0.2412,0.2414,0,0,0,0,0,0,0.2224,0.2224,0.2239,0.224,0.2232,0.2242,0.2243,0.2243,0.2257,0.2259,0.2247,0.2247,0.2272,0.2275,0.2279,0.2351,0.229,0.2292,0.2293,0.241,0.2412,0.2415,0,0,0,0,0,0,0.2223,0.2225,0.2238,0.2233,0.2235,0.2242,0.2243,0.2244,0.2254,0.2261,0.2263,0.2258,0.2272,0.2276,0.2303,0.235,0.2293,0.2294,0.2407,0.2411,0.2414,0.246,0,0,0,0,0,0,0.2223,0.2224,0.223,0.2233,0.2236,0.2256,0.2244,0.2244,0.2257,0.2257,0.2271,0.2273,0.2272,0.2301,0.2305,0.2351,0.2295,0.2404,0.2409,0.2413,0.2455,0.2464,0.2472,0,0,0,0,0,0.2222,0.2232,0.223,0.2233,0.2242,0.2257,0.2259,0.2262,0.2258,0.2269,0.2277,0.2273,0.2332,0.2303,0.2308,0.2355,0.2402,0.2407,0.2412,0.2452,0.2463,0.2472,0,0,0,0,0,0,0.2226,0.2233,0.2231,0.2242,0.2254,0.2258,0.227,0.2269,0.2284,0.2287,0.2287,0.229,0.2341,0.234,0.2309,0.2406,0.2373,0.2379,0.2402,0.2412,0.242,0.2439,0.2296,0,0,0,0,0,0.223,0.2238,0.2246,0.2256,0.2263,0.2268,0.2276,0.228,0.229,0.2296,0.2306,0.2329,0.2365,0.2379,0.2406,0.2444,0.2452,0.2485,0.2493,0.25,0.252,0.2571,0.2585,0.2432,0.2432,0.2432,0,0,0.2233,0.224,0.2243,0.2258,0.2266,0.2282,0.2272,0.2292,0.231,0.2299,0.2331,0.2357,0.2383,0.2434,0.2458,0.2437,0.2544,0.2506,0.2511,0.2529,0.2577,0.2592,0.2605,0.2435,0.2434,0.2434,0,0,0.2244,0.2252,0.2263,0.2277,0.2296,0.2302,0.2311,0.2325,0.2338,0.2368,0.2381,0.2434,0.2462,0.2505,0.2526,0.2598,0.259,0.2611,0.2663,0.2711,0.2723,0.2735,0.2743,0.2755,0.2611,0.2611,0.2611,0,0.225,0.2261,0.227,0.2288,0.2303,0.2313,0.2332,0.235,0.2373,0.2402,0.2387,0.2485,0.2504,0.2591,0.2622,0.262,0.2627,0.2616,0.272,0.2732,0.2743,0.2748,0.2761,0.2613,0.2613,0.2613,0.2613,0,0.2265,0.2281,0.2293,0.2316,0.2336,0.2357,0.2382,0.241,0.2426,0.2455,0.254,0.2572,0.2631,0.2658,0.266,0.2764,0.2736,0.2724,0.2689,0.2761,0.2762,0.2774,0.2618,0.2617,0.2616,0.2615,0,0,0.2256,0.2295,0.2299,0.2313,0.2354,0.2368,0.2416,0.2468,0.2507,0.2555,0.2618,0.2707,0.2734,0.2763,0.2786,0.284,0.2916,0.2818,0.282,0.2816,0.2997,0.2892,0.2894,0.2917,0.292,0.2922,0.2958,0,0.2264,0.2294,0.2318,0.2353,0.2369,0.2407,0.245,0.2506,0.255,0.2614,0.2691,0.2765,0.2769,0.2809,0.2864,0.2915,0.2954,0.2906,0.2938,0.2939,0.2829,0.2908,0.2666,0.2671,0.2969,0.2971,0.2973,0,0.2266,0.2287,0.2319,0.2369,0.2382,0.2411,0.2484,0.2526,0.2629,0.2672,0.2765,0.2817,0.2932,0.2907,0.3025,0.2991,0.3003,0.3029,0.303,0.293,0.2858,0.2654,0.2681,0.2993,0.2991,0.299,0.2988,0,0.2238,0.2286,0.2309,0.2326,0.2387,0.242,0.2461,0.2553,0.2601,0.2724,0.2778,0.2898,0.2959,0.3025,0.307,0.306,0.3167,0.3148,0.3061,0.3052,0.2854,0.2822,0.3223,0.3223,0.3223,0.3223,0.3223,0,0.2228,0.2245,0.2298,0.2309,0.2348,0.2406,0.2464,0.2526,0.2628,0.2697,0.2809,0.2876,0.2995,0.3061,0.3093,0.3107,0.3179,0.3093,0.3071,0.2859,0.2829,0.3117,0.3104,0.3224,0.3224,0.3223,0.3223,0,0.2187,0.2221,0.2247,0.2311,0.2332,0.2361,0.2448,0.2492,0.2602,0.2693,0.2744,0.2883,0.2976,0.3053,0.315,0.3119,0.3157,0.3131,0.2856,0.2802,0.3002,0.2992,0.3063,0.306,0.3058,0.3056,0.3054,0,0.2166,0.2176,0.223,0.2244,0.2272,0.2324,0.2359,0.2465,0.2516,0.2684,0.2723,0.2856,0.2912,0.2999,0.2992,0.3014,0.3097,0.2781,0.2731,0.3023,0.2995,0.2988,0.2981,0.2477,0.247,0.2465,0.2461,0,0.2128,0.2149,0.2168,0.2194,0.2225,0.2255,0.2318,0.2353,0.2482,0.2553,0.2649,0.2717,0.2801,0.2714,0.2731,0.2717,0.2765,0.2674,0.3069,0.2552,0.2472,0.2443,0.2456,0.2414,0.2419,0.2422,0.2425,0.2427,0.2095,0.2093,0.2118,0.2133,0.2161,0.2176,0.217,0.2238,0.2287,0.2366,0.249,0.2496,0.2524,0.2441,0.2366,0.2312,0.2516,0.2405,0.242,0.2442,0.2366,0.2285,0.2176,0.2179,0.2182,0.2184,0.2186,0,0.2038,0.2042,0.2056,0.2056,0.2039,0.2092,0.2123,0.209,0.2087,0.2182,0.2226,0.2058,0.1991,0.2028,0.1869,0.1862,0.1845,0.1789,0.1745,0.1792,0.1835,0.1727,0.1368,0.1366,0.1363,0.1361,0,0,0.201,0.1985,0.1981,0.1925,0.1928,0.1873,0.1866,0.1835,0.1856,0.182,0.1799,0.1943,0.1984,0.1664,0.1611,0.146,0.162,0.1403,0.2063,0.2061,0.21,0.2196,0.2084,0,0,0,0,0]},{"header":{"parameterUnit":"m.s-1","parameterCategory":2,"la1":30.2991,"la2":30.254,"lo1":-89.0895,"lo2":-89.0444,"dy":0.0017,"dx":0.0017,"nx":28,"ny":28,"refTime":"2024-05-29T03:00:00:Z","depth":"2","parameterNumber":3,"parameterNumberName":"V-component_of_CURRENTS"},"data":[0,0,0,0,0,0,0,0,0,0,0,0,0,0,0,0,0,0,0,0,0,0,0,0,0,0,0,0,0,0,0,0,0,0,0,0,0,0,0,0,0,0,0,0,0,0,0,0,0,0,0,0,0,0,0,0,0,0,0.0124,0.0124,0,0.0083,0.0082,0.0082,0.005,0.005,0.005,0.005,-0.0025,-0.0026,-0.0028,0,0,0,0,0,0,0,0,0,0,0,0,0,0.0133,0.0134,0.0124,0.0124,0.0123,0.0083,0.0082,0.0082,0.005,0.005,0.005,0.0049,-0.0024,-0.0026,-0.0028,0,0,0,0,0,0,0,0,0,0,0,0,0,0.0114,0.0134,0.0124,0.0103,0.0101,0.0083,0.0082,0.0081,0.005,0.005,0.005,0.0049,-0.0023,-0.0026,-0.0029,-0.0039,0,0,-0.0037,-0.0038,0,0,0,0,0,0,0,0,0.0115,0.0113,0.0107,0.0105,0.0102,0.0072,0.0058,0.004,0.005,0.0069,0.005,0.0049,0.0005,0.0,-0.0007,-0.0042,-0.0045,-0.0037,-0.0039,-0.004,-0.0041,0,0,0,0,0,0,0,0.0117,0.0115,0.0107,0.0106,0.0104,0.0082,0.0079,0.0055,0.0038,0.0067,0.0065,0.0062,0.0004,-0.0005,-0.0009,-0.0046,-0.0037,-0.0039,-0.0041,-0.0042,-0.0102,-0.0102,0,0,0,0,0,0,0.0126,0.0116,0.0108,0.0106,0.0109,0.0082,0.0079,0.0081,0.0039,0.0033,0.0062,0.006,-0.0,-0.0006,-0.0012,-0.0012,-0.004,-0.0042,-0.0044,-0.0102,-0.0102,-0.0102,0,0,0,0,0,0,0.0126,0.0126,0.011,0.011,0.0107,0.0083,0.0086,0.0081,0.0074,0.0036,0.0029,0.006,-0.0001,-0.0009,-0.0026,-0.0016,-0.0043,-0.0046,-0.0102,-0.0102,-0.0102,-0.0021,0,0,0,0,0,0,0.0127,0.0127,0.0131,0.0111,0.0107,0.0106,0.0086,0.008,0.0073,0.007,0.0032,0.0024,-0.0001,-0.0021,-0.0028,-0.002,-0.0048,-0.0102,-0.0102,-0.0102,-0.0024,-0.0018,-0.0014,0,0,0,0,0,0.0128,0.0139,0.0132,0.013,0.0115,0.0107,0.0103,0.0083,0.0073,0.0074,0.0051,0.0026,-0.0027,-0.0023,-0.0031,-0.0023,-0.0102,-0.0102,-0.0102,-0.0026,-0.0019,-0.0014,0,0,0,0,0,0,0.0144,0.0136,0.0128,0.0135,0.0124,0.0102,0.0102,0.0088,0.007,0.0067,0.0031,0.0022,0.0008,-0.0021,-0.0016,-0.0043,-0.0071,-0.0072,-0.001,-0.0005,0.0,0.0019,-0.005,0,0,0,0,0,0.0151,0.0158,0.0143,0.0149,0.0146,0.0125,0.0118,0.0106,0.0088,0.008,0.0054,0.0024,0.0001,-0.001,-0.0038,-0.0048,-0.0064,-0.0052,-0.0047,-0.0042,-0.0035,-0.0037,-0.003,-0.0101,-0.0101,-0.0101,0,0,0.0158,0.0155,0.0159,0.0153,0.0143,0.0148,0.012,0.0117,0.0122,0.0074,0.0072,0.004,0.0001,-0.0009,-0.0019,-0.003,-0.0033,-0.0042,-0.0038,-0.0033,-0.0036,-0.0029,-0.0022,-0.0101,-0.0101,-0.0101,0,0,0.0182,0.0176,0.0191,0.0186,0.0177,0.0167,0.0169,0.015,0.0142,0.0134,0.0102,0.0084,0.0044,0.0027,0.0011,0.0026,-0.0007,0.0006,0.0051,0.0049,0.0056,0.0061,0.0047,0.0051,0.0011,0.0011,0.0011,0,0.019,0.0209,0.0192,0.0205,0.0209,0.018,0.0197,0.0186,0.0163,0.0165,0.0142,0.0101,0.0066,0.0064,0.0064,0.0041,0.0027,0.0037,0.0059,0.0064,0.0068,0.0053,0.0056,0.0015,0.0015,0.0014,0.0014,0,0.0224,0.0238,0.0247,0.0257,0.0257,0.0267,0.0253,0.0253,0.0238,0.0225,0.0217,0.0174,0.0153,0.0133,0.0101,0.0111,0.0087,0.0068,0.0052,0.0081,0.0061,0.0063,0.0021,0.0019,0.0018,0.0017,0,0,0.025,0.0267,0.0273,0.0291,0.0288,0.0297,0.0308,0.0315,0.0335,0.0301,0.0324,0.0274,0.025,0.023,0.019,0.0179,0.019,0.0138,0.0136,0.0139,0.0179,0.0156,0.0155,0.0178,0.0179,0.018,0.0153,0,0.0284,0.0325,0.0322,0.0364,0.0385,0.0371,0.0391,0.0391,0.0383,0.0395,0.0354,0.0353,0.0288,0.0284,0.0265,0.021,0.0199,0.0199,0.0137,0.0135,0.0124,0.0158,0.0167,0.0144,0.0154,0.0154,0.0155,0,0.0323,0.0347,0.0395,0.0431,0.044,0.0461,0.0496,0.0508,0.0511,0.0505,0.0493,0.0458,0.0435,0.0379,0.0313,0.0316,0.0255,0.0208,0.0206,0.0159,0.0116,0.0114,0.0146,0.0157,0.0157,0.0157,0.0157,0,0.0364,0.0403,0.0448,0.0458,0.0489,0.0515,0.0533,0.0546,0.0575,0.058,0.0603,0.0558,0.055,0.0473,0.0361,0.0344,0.0286,0.0254,0.0176,0.0173,0.0156,0.0151,0.0218,0.0218,0.0218,0.0218,0.0218,0,0.0408,0.0444,0.0474,0.05,0.0564,0.0566,0.0632,0.064,0.0671,0.0726,0.0667,0.0697,0.0574,0.0519,0.0406,0.0299,0.0323,0.0194,0.0173,0.0182,0.0179,0.0167,0.0162,0.0217,0.0217,0.0217,0.0217,0,0.0448,0.0465,0.0521,0.0566,0.0588,0.0634,0.0701,0.0748,0.0765,0.0837,0.0847,0.0811,0.0742,0.0606,0.0482,0.0369,0.026,0.0213,0.0223,0.0203,0.0135,0.0134,0.0136,0.0135,0.0135,0.0134,0.0134,0,0.0472,0.0506,0.0573,0.0614,0.0639,0.0706,0.076,0.0795,0.0854,0.0913,0.096,0.0915,0.0899,0.0698,0.0495,0.0308,0.0269,0.0178,0.0147,0.0152,0.013,0.013,0.013,0.0152,0.0151,0.0151,0.0151,0,0.0518,0.0543,0.0589,0.0675,0.0739,0.0816,0.0897,0.0959,0.1017,0.108,0.1146,0.1138,0.0954,0.0768,0.0497,0.0359,0.0207,0.0167,0.0188,0.0169,0.0164,0.0143,0.0143,0.0149,0.0149,0.0149,0.0149,0.0149,0.0554,0.0593,0.0658,0.074,0.0818,0.092,0.0995,0.1087,0.1195,0.129,0.1275,0.1259,0.1042,0.0703,0.0466,0.0203,0.0218,0.011,0.0113,0.0115,0.012,0.0114,0.0089,0.0089,0.0089,0.0089,0.0089,0,0.0595,0.0641,0.0718,0.0818,0.0908,0.0945,0.1084,0.1165,0.1301,0.1367,0.1413,0.1205,0.0994,0.0733,0.0358,0.0139,0.0115,0.0049,0.0073,0.0077,0.008,0.0084,0.0043,0.0042,0.0042,0.0041,0,0,0.0618,0.0692,0.0729,0.0876,0.0951,0.1081,0.1164,0.1287,0.1367,0.1435,0.1418,0.1376,0.1073,0.0791,0.0489,0.027,0.0219,0.0214,0.0274,0.0342,0.0348,0.0138,0.0151,0,0,0,0,0]}],[{"header":{"parameterUnit":"m.s-1","parameterCategory":2,"la1":30.2991,"la2":30.254,"lo1":-89.0895,"lo2":-89.0444,"dy":0.0017,"dx":0.0017,"nx":28,"ny":28,"refTime":"2024-05-29T03:00:00:Z","depth":"4","parameterNumber":2,"parameterNumberName":"U-component_of_CURRENTS"},"data":[0,0,0,0,0,0,0,0,0,0,0,0,0,0,0,0,0,0,0,0,0,0,0,0,0,0,0,0,0,0,0,0,0,0,0,0,0,0,0,0,0,0,0,0,0,0,0,0,0,0,0,0,0,0,0,0,0,0,0.1486,0.1486,0,0.1499,0.1499,0.1499,0.1521,0.1522,0.1523,0.1524,0.1488,0.1487,0.1485,0,0,0,0,0,0,0,0,0,0,0,0,0,0.1452,0.1452,0.1485,0.1486,0.1486,0.1499,0.1499,0.1499,0.1521,0.1522,0.1523,0.1524,0.1489,0.1487,0.1485,0,0,0,0,0,0,0,0,0,0,0,0,0,0.1463,0.1452,0.1485,0.1502,0.1504,0.1499,0.1499,0.1499,0.1521,0.1522,0.1523,0.1524,0.1489,0.1487,0.1485,0.1448,0,0,0.1477,0.1476,0,0,0,0,0,0,0,0,0.1462,0.1463,0.1499,0.1501,0.1503,0.1513,0.1475,0.1481,0.1521,0.1511,0.1524,0.1525,0.1493,0.1491,0.1486,0.1446,0.1444,0.1477,0.1475,0.1474,0.1474,0,0,0,0,0,0,0,0.1461,0.1463,0.1487,0.1499,0.1502,0.15,0.1502,0.1476,0.1492,0.1512,0.1514,0.1521,0.1494,0.1489,0.1486,0.1444,0.1477,0.1475,0.1473,0.1472,0.1477,0.1478,0,0,0,0,0,0,0.1467,0.1462,0.1487,0.1488,0.1489,0.15,0.1502,0.1506,0.1493,0.1494,0.152,0.1522,0.1492,0.1489,0.1485,0.1519,0.1474,0.1472,0.1471,0.1475,0.1477,0.1479,0,0,0,0,0,0,0.1466,0.1469,0.1487,0.1478,0.1481,0.15,0.1503,0.1505,0.1536,0.1501,0.15,0.1553,0.1493,0.1488,0.1496,0.1515,0.1471,0.1469,0.1473,0.1476,0.1478,0.1538,0,0,0,0,0,0,0.1465,0.1468,0.1487,0.1479,0.1482,0.151,0.1502,0.1505,0.1538,0.1542,0.1528,0.1524,0.1494,0.15,0.1494,0.1511,0.1467,0.1471,0.1474,0.1477,0.1534,0.1542,0.1549,0,0,0,0,0,0.1463,0.1479,0.1487,0.1492,0.1502,0.1511,0.1513,0.1527,0.1539,0.1557,0.1553,0.1526,0.1515,0.1499,0.1491,0.1508,0.147,0.1473,0.1477,0.153,0.154,0.1549,0,0,0,0,0,0,0.1473,0.1482,0.1492,0.151,0.1525,0.1517,0.1539,0.1547,0.1558,0.157,0.1538,0.1533,0.1547,0.1525,0.1509,0.1522,0.1491,0.1493,0.1534,0.1543,0.155,0.1576,0.1465,0,0,0,0,0,0.1484,0.1502,0.1508,0.1528,0.1539,0.1546,0.1559,0.1569,0.1571,0.158,0.1572,0.1563,0.1549,0.1547,0.1532,0.1533,0.1538,0.1544,0.1552,0.1558,0.1576,0.1607,0.1619,0.149,0.149,0.149,0,0,0.1494,0.1504,0.1515,0.1533,0.1545,0.156,0.1557,0.1587,0.1601,0.1571,0.1597,0.1588,0.1557,0.1562,0.1567,0.155,0.1597,0.1562,0.1568,0.1583,0.1612,0.1625,0.1636,0.1493,0.1492,0.1492,0,0,0.151,0.1534,0.155,0.1566,0.1595,0.1596,0.1615,0.163,0.1644,0.1662,0.1645,0.1659,0.1639,0.1624,0.1609,0.1651,0.1636,0.165,0.1704,0.1734,0.1745,0.1754,0.1776,0.1787,0.1653,0.1653,0.1653,0,0.1527,0.1543,0.1559,0.1577,0.1595,0.1618,0.1638,0.1648,0.1667,0.1676,0.1685,0.1686,0.1666,0.1663,0.1688,0.1667,0.1686,0.1666,0.1744,0.1753,0.1762,0.1782,0.1794,0.1657,0.1656,0.1656,0.1655,0,0.154,0.1569,0.1584,0.1612,0.1633,0.166,0.1675,0.1705,0.173,0.1733,0.1762,0.1751,0.1752,0.1751,0.1733,0.178,0.1774,0.1749,0.172,0.1779,0.1796,0.1807,0.1661,0.166,0.1659,0.1658,0,0,0.1531,0.1583,0.1592,0.1613,0.1657,0.167,0.1707,0.1731,0.1756,0.1787,0.1815,0.1819,0.1832,0.1821,0.1806,0.1845,0.1922,0.184,0.184,0.1861,0.2,0.1869,0.1868,0.1919,0.1921,0.1923,0.1987,0,0.154,0.1577,0.1603,0.1646,0.1664,0.1704,0.1729,0.1759,0.1789,0.1822,0.1833,0.1856,0.1848,0.1868,0.1902,0.1917,0.1956,0.1908,0.1942,0.1943,0.1817,0.1877,0.193,0.1995,0.1997,0.1999,0.2,0,0.1535,0.1564,0.1606,0.1658,0.1672,0.1706,0.1761,0.1788,0.1833,0.186,0.1898,0.1907,0.1961,0.1951,0.2022,0.1999,0.2017,0.2031,0.2033,0.1899,0.1831,0.1924,0.202,0.2018,0.2017,0.2015,0.2014,0,0.1499,0.1561,0.1597,0.1617,0.1679,0.1716,0.1757,0.1807,0.1831,0.1902,0.1938,0.198,0.2025,0.2062,0.2095,0.2076,0.2175,0.2132,0.2028,0.2019,0.209,0.2079,0.2193,0.2193,0.2193,0.2193,0.2193,0,0.1475,0.1508,0.1592,0.161,0.1657,0.1712,0.1766,0.1811,0.1873,0.1902,0.1965,0.1996,0.2069,0.2116,0.2128,0.2113,0.2196,0.2056,0.2032,0.2113,0.2104,0.2098,0.2086,0.2195,0.2195,0.2194,0.2194,0,0.1421,0.1478,0.1523,0.1609,0.1641,0.1678,0.177,0.1797,0.1882,0.193,0.1963,0.2041,0.2107,0.2152,0.2218,0.2145,0.2147,0.2121,0.2223,0.2201,0.1963,0.1954,0.2001,0.1997,0.1994,0.1991,0.1989,0,0.1391,0.1413,0.1515,0.1546,0.1594,0.1664,0.1701,0.179,0.1819,0.1934,0.1943,0.2046,0.2084,0.2064,0.2129,0.2135,0.2108,0.2087,0.2013,0.1975,0.1947,0.1943,0.1938,0.1983,0.1982,0.1982,0.1981,0,0.1334,0.1389,0.1428,0.1493,0.1548,0.159,0.166,0.1667,0.1765,0.1861,0.1872,0.1889,0.1955,0.1982,0.201,0.2006,0.2083,0.2051,0.2057,0.1987,0.1953,0.1928,0.1928,0.1969,0.1971,0.1972,0.1972,0,0.1299,0.1312,0.1376,0.1417,0.1481,0.1492,0.154,0.1572,0.1608,0.1729,0.1736,0.1837,0.1937,0.1917,0.194,0.1931,0.189,0.1806,0.1824,0.1838,0.1752,0.1684,0.1611,0,0,0,0,0,0.1252,0.1253,0.1291,0.132,0.1377,0.1413,0.1493,0.1542,0.1642,0.1603,0.1658,0.1703,0.1723,0.1777,0.1735,0.1878,0.1909,0.1818,0.1824,0.1904,0.1918,0.1831,0,0,0,0,0,0,0.1218,0.1253,0.1256,0.123,0.1233,0.1276,0.1324,0.1396,0.1379,0.149,0.1514,0.1594,0.165,0.1732,0.17,0.1717,0.1682,0.1885,0.188,0.1896,0.1909,0.1919,0.1835,0,0,0,0,0]},{"header":{"parameterUnit":"m.s-1","parameterCategory":2,"la1":30.2991,"la2":30.254,"lo1":-89.0895,"lo2":-89.0444,"dy":0.0017,"dx":0.0017,"nx":28,"ny":28,"refTime":"2024-05-29T03:00:00:Z","depth":"4","parameterNumber":3,"parameterNumberName":"V-component_of_CURRENTS"},"data":[0,0,0,0,0,0,0,0,0,0,0,0,0,0,0,0,0,0,0,0,0,0,0,0,0,0,0,0,0,0,0,0,0,0,0,0,0,0,0,0,0,0,0,0,0,0,0,0,0,0,0,0,0,0,0,0,0,0,0.0161,0.0161,0,0.0141,0.014,0.014,0.0123,0.0123,0.0123,0.0123,0.0118,0.0118,0.0118,0,0,0,0,0,0,0,0,0,0,0,0,0,0.0158,0.0159,0.0161,0.0161,0.0161,0.0141,0.014,0.014,0.0123,0.0123,0.0123,0.0123,0.0118,0.0118,0.0118,0,0,0,0,0,0,0,0,0,0,0,0,0,0.0151,0.0159,0.0161,0.015,0.0149,0.0141,0.014,0.014,0.0123,0.0123,0.0123,0.0122,0.0117,0.0118,0.0118,0.0123,0,0,0.0118,0.0118,0,0,0,0,0,0,0,0,0.0151,0.0151,0.0152,0.0151,0.0149,0.0134,0.0137,0.0135,0.0123,0.0133,0.0123,0.0122,0.0125,0.0124,0.0121,0.0123,0.0123,0.0118,0.0118,0.0118,0.0118,0,0,0,0,0,0,0,0.0152,0.0152,0.0153,0.0151,0.015,0.0136,0.0135,0.0137,0.0131,0.0132,0.0131,0.0129,0.0124,0.0121,0.012,0.0122,0.0118,0.0118,0.0118,0.0118,0.0163,0.0164,0,0,0,0,0,0,0.0156,0.0152,0.0154,0.0152,0.015,0.0137,0.0135,0.0139,0.013,0.0129,0.0129,0.0128,0.0121,0.012,0.012,0.0151,0.0118,0.0118,0.0118,0.0161,0.0163,0.0164,0,0,0,0,0,0,0.0157,0.0157,0.0154,0.0151,0.015,0.0137,0.0141,0.0139,0.0138,0.0128,0.0126,0.013,0.012,0.012,0.0129,0.0149,0.0118,0.0118,0.016,0.0162,0.0163,0.0196,0,0,0,0,0,0,0.0157,0.0157,0.0163,0.0152,0.0151,0.0155,0.0142,0.0139,0.0137,0.0135,0.0129,0.0128,0.012,0.0129,0.0129,0.0149,0.0118,0.0159,0.0161,0.0163,0.0193,0.0199,0.0203,0,0,0,0,0,0.0157,0.0167,0.0163,0.0163,0.0158,0.0155,0.0154,0.0143,0.0137,0.014,0.0138,0.0128,0.0143,0.013,0.0129,0.015,0.0158,0.016,0.0163,0.0191,0.0198,0.0203,0,0,0,0,0,0,0.0168,0.0166,0.0162,0.017,0.0165,0.0153,0.0156,0.0147,0.0147,0.0148,0.0137,0.0136,0.0153,0.0149,0.0134,0.0171,0.0151,0.0154,0.0173,0.0179,0.0184,0.0188,0.0118,0,0,0,0,0,0.0173,0.0182,0.0174,0.0181,0.0181,0.0169,0.0167,0.016,0.0157,0.0156,0.0151,0.0154,0.0164,0.0168,0.0172,0.0189,0.0167,0.0205,0.021,0.0214,0.0219,0.02,0.0203,0.0173,0.0173,0.0173,0,0,0.0179,0.018,0.0184,0.0184,0.018,0.0187,0.0167,0.0169,0.0178,0.0157,0.0171,0.0168,0.0172,0.0191,0.02,0.019,0.0211,0.0217,0.0221,0.0224,0.0203,0.0206,0.0208,0.0175,0.0174,0.0174,0,0,0.0197,0.0197,0.021,0.021,0.0207,0.0203,0.0205,0.0197,0.0197,0.0208,0.0201,0.021,0.0218,0.0227,0.0232,0.0268,0.0236,0.0273,0.0301,0.0283,0.0285,0.0286,0.0255,0.0254,0.0277,0.0277,0.0277,0,0.0203,0.0221,0.0212,0.0224,0.023,0.0213,0.0229,0.0228,0.0224,0.0233,0.0219,0.024,0.0238,0.0269,0.0281,0.0279,0.0255,0.0276,0.0287,0.0288,0.0289,0.0257,0.0255,0.0279,0.0279,0.0278,0.0278,0,0.0229,0.0244,0.0252,0.0265,0.0269,0.028,0.0278,0.0285,0.0282,0.0282,0.0304,0.0296,0.0311,0.0314,0.0307,0.0325,0.0301,0.0291,0.0268,0.0294,0.0259,0.0256,0.0282,0.0281,0.028,0.028,0,0,0.0244,0.0266,0.0271,0.0289,0.0294,0.0304,0.0323,0.034,0.0361,0.0352,0.0377,0.0387,0.0377,0.0384,0.0375,0.036,0.0341,0.033,0.0328,0.0291,0.0286,0.0266,0.026,0.0326,0.0326,0.0326,0.0255,0,0.0269,0.0304,0.0308,0.0347,0.0366,0.0365,0.0388,0.0401,0.0405,0.0422,0.0415,0.0435,0.0406,0.0417,0.0396,0.036,0.0336,0.036,0.0274,0.0271,0.0244,0.0258,0.0326,0.0253,0.0252,0.0251,0.0251,0,0.0296,0.0318,0.0361,0.04,0.0409,0.0431,0.047,0.0489,0.0505,0.0508,0.0513,0.05,0.0494,0.046,0.0396,0.041,0.0353,0.0312,0.0308,0.0278,0.0247,0.0224,0.0245,0.0246,0.0246,0.0246,0.0247,0,0.032,0.0359,0.0399,0.041,0.0447,0.0474,0.0497,0.052,0.0551,0.0565,0.0582,0.0558,0.0556,0.0484,0.0399,0.0397,0.0309,0.0296,0.0221,0.0218,0.024,0.024,0.0243,0.0243,0.0243,0.0244,0.0244,0,0.0347,0.038,0.0417,0.0441,0.05,0.0511,0.0572,0.0588,0.0619,0.0663,0.0632,0.0649,0.0561,0.0502,0.0411,0.0306,0.0316,0.0227,0.0203,0.0255,0.0257,0.0237,0.0237,0.0241,0.0242,0.0242,0.0243,0,0.0367,0.0389,0.0441,0.0491,0.0515,0.0558,0.0626,0.0667,0.0687,0.074,0.0749,0.0719,0.0644,0.0537,0.0417,0.0332,0.0227,0.0183,0.024,0.022,0.0143,0.0146,0.0099,0.0097,0.0096,0.0096,0.0095,0,0.038,0.0409,0.0481,0.0519,0.0547,0.0612,0.0662,0.0702,0.0745,0.0783,0.0809,0.076,0.0722,0.0534,0.0414,0.0232,0.0204,0.0136,0.0147,0.0149,0.013,0.0134,0.0139,0.0093,0.0093,0.0093,0.0093,0,0.0404,0.0433,0.0475,0.0554,0.0616,0.0686,0.0756,0.0791,0.0841,0.086,0.0858,0.0773,0.0685,0.0539,0.0393,0.0264,0.0175,0.0125,0.0126,0.0136,0.0141,0.0125,0.013,0.0089,0.009,0.009,0.009,0,0.0425,0.0456,0.0516,0.0586,0.0665,0.0738,0.0774,0.0822,0.0865,0.0897,0.0892,0.08,0.0749,0.0555,0.0424,0.0292,0.0259,0.0204,0.02,0.0202,0.0252,0.0275,0.0246,0,0,0,0,0,0.044,0.0476,0.0541,0.062,0.0698,0.0747,0.0829,0.0858,0.0903,0.0905,0.09,0.0817,0.0637,0.0564,0.0429,0.0399,0.023,0.0234,0.0163,0.007,0.0074,0.0113,0,0,0,0,0,0,0.0449,0.0508,0.0539,0.0637,0.0693,0.0785,0.0839,0.087,0.0869,0.0889,0.0797,0.0765,0.0591,0.0712,0.042,0.0383,0.0314,0.0157,0.0153,0.0068,0.0071,0.0075,0.0116,0,0,0,0,0]}]]